Погода в Зилаире

Погода в Зилаире : погода сейчас, прогноз погоды и архив. Всё, что Вы хотите узнать о погоде в Зилаире!

Поиск расширенной информации на нашем сайте:

Другие новости

Новости СМИ2

Главная страница сайта

Новости сайта

02.10.2013

Напоминаем, что на нашем новом сайте вы можете получить высокодетализированные прогнозы погоды по пунктам России, СНГ и мира (включающие важные для авиации метеовеличины, такие как направление и скорость ветра, видимость, явления погоды, количество и форма облачности, нижняя и верхняя граница облачности), а также ознакомиться с разнообразными материалами по авиационной метеорологии и подборкой полезных ссылок на эту тему.

Сайт Метеоцентр.Азия посвящён разработке технологий оптимизации авиаметеорологического обслуживания, включая проектирование и перспективное создание нескольких автоматизированных авиаметеорологических систем:
- система выпуска высокодетальных прогностических карт явлений погоды для нижнего воздушного пространства по России и ближнему зарубежью;
- система верификации прогнозов TAF (выпускаемых синоптиками официальных АМСГ РФ и ближнего зарубежья) и AUTOTAF (выпускаемых сайтом Метеоцентр.Азия) - выявление ошибок, онлайн-сопоставление с фактической погодой METAR, автоматическое внесение коррективов в прогнозы при резком отклонении фактической погоды от прогноза, подсчёт оправдываемости прогнозов по элементам и в целом;
- система обработки, анализа и отображения авиаметеорологической информации для применения провайдерами метеорологической информации.


Погода в Зилаире - сегодня

Время (UTC), дата Ветер
(°,м/с) 
Видим.   Явления Облачность Т
(°С)
Тd
(°С)
f(%) Тe
(°С)
Pmin
(гПа)
dP
(гПа)
Po
(мм)
O2
(г/м3)
Тmin Tmax R s Состояние
почвы
15 20.01.17 230 (ЮЗ) 7-13{13}  4000 м  слаб. ливневой снег  10/10 300 м кучево-дожд. 
[Cb cap]
-12.8 -15 84 -19  1010.9  -2.8  708  301    -12.7     
18 20.01.17 240 (ЮЗ) 6-11{14}  4000 м  слаб. ливневой снег  10/10 300 м кучево-дожд. 
[Cb cap]
-12.7 -15.2 81 -19  1008.4  -2.3  707  300           
21 20.01.17 250 (З) 4{12}  2000 м  ливневой снег  10/10 300 м кучево-дожд. 
[Cb cap]
-12.1 -14.6 82 -16  1007.4  -0.8  706  299           
00 21.01.17 240 (ЮЗ) 2000 м  ливневой снег  10/10 300 м кучево-дожд. 
[Cb cap]
-11.5 -13.5 85 -15  1007.6  0.4  706  298           
03 21.01.17 240 (ЮЗ) 2000 м  ливневой снег  10/10 300 м кучево-дожд. 
[Cb cap]
-11 -12.7 87 -16  1007.3  -0.2  706  298  -13.2    60  неравномерный
сухой снег
100% 
06 21.01.17 240 (ЮЗ) 2000 м  ливневой снег  10/10 300 м кучево-дожд. 
[Cb cap]
-10 -11.7 87 -13  1007.8  0.7  707  297           
09 21.01.17 240 (ЮЗ) 4000 м  слаб. ливневой снег  10/10 600 м кучево-дожд. 
[Cb cap]
-8.7 -10.8 85 -13  1006.2  -1.1  706  295           
12 21.01.17 250 (З) 4{12}  2000 м  ливневой снег  10/10 300 м кучево-дожд. 
[Cb cap]
-9.1 -11 86 -13  1005.9  -0.4  706  295           
15 21.01.17 240 (ЮЗ) 4{10}  2000 м  ливневой снег  10/10 300 м кучево-дожд. 
[Cb cap]
-9.2 -10.9 87 -13  1005.9  706  295    -8.6     
18 21.01.17 230 (ЮЗ) 2000 м  ливневой снег  10/10 300 м кучево-дожд. 
[Cb cap]
-9.8 -11.7 86 -13  1005.4  -0.7  705  296           
21 21.01.17 250 (З) 2000 м  ливневой снег  10/10 300 м кучево-дожд. 
[Cb cap]
-9.7 -11.7 85 -13  1004.4  -0.9  704  295           
00 22.01.17 260 (З) 2000 м  ливневой снег  10/10 300 м кучево-дожд. 
[Cb cap]
-9.8 -11.5 87 -12  1003.2  -1.1  704  295           
03 22.01.17 220 (ЮЗ) 4000 м  слаб. ливневой снег  10/10 600 м кучево-дожд. 
[Cb cap]
-10 -11.3 90 -10  1001.7  -1.5  702  295  -10.3    68  неравномерный
сухой снег
100% 
06 22.01.17 310 (СЗ) 10 км  {ливн. осадки}  9/6 600 м верхняя 
[Sc|Cs]
-10.4 -12.5 85 -12  1001.8  702  295  -10.4         
09 22.01.17 310 (СЗ) 20000 м    6/6 600 м 
[Sc]
-11 -15.1 72 -16  1001.9  702  296           
12 22.01.17 310 (СЗ) 20000 м    5/5 600 м 
[Sc]
-11.9 -15.8 73 -15  1003  0.8  703  297           
15 22.01.17 280 (З) 10 км    10/10 600 м кучево-дожд. 
[Cb calv]
-13.6 -15.9 83 -16  1004.6  1.1  704  300    -9.4  0.3     
18 22.01.17 180 (Ю) 10 км    8/8 600 м 
[Sc]
-18 -20.1 84 -18  1006.7  0.8  704  305           
21 22.01.17 210 (ЮЗ) 10 км    5/5 600 м 
[Sc]
-18.6 -20.9 82 -21  1007.1  0.2  705  306           
00 23.01.17 240 (ЮЗ) 10 км    8/8 600 м 
[Sc]
-16.4 -18.5 84 -17  1007.3  0.8  705  304           
03 23.01.17 290 (З) 10 км  слаб. ливневой снег  10/10 600 м кучево-дожд. 
[Cb cap]
-15.1 -17.2 84 -19  1008.1  1.1  706  302  -18.9    0.2  68  неравномерный
сухой снег
100% 
06 23.01.17 280 (З) 4000 м  слаб. снег{ливн. осадки}  10/10 600 м 
[Sc]
-14.2 -16.3 84 -16  1009.7  1.7  707  302           
09 23.01.17 300 (СЗ) 4000 м  слаб. снег  9/0 средняя 
[Ac und]
-13 -16.4 76 -17  1010.9  1.4  708  301           
12 23.01.17 280 (З) 4000 м  слаб. снег  8/0 средняя 
[Ac und]
-13.3 -16.5 77 -15  1012.2  1.1  709  302           
15 23.01.17 280 (З) 4000 м  слаб. снег  10/0 средняя 
[Ac und]
-13.5 -16.1 81 -17  1013.8  1.5  710  302    -12.7  0.3     
Время (UTC), дата Ветер
(°,м/с) 
Видим.   Явления Облачность Т
(°С)
Тd
(°С)
f(%) Тe
(°С)
Pmin
(гПа)
dP
(гПа)
Po
(мм)
O2
(г/м3)
Тmin Tmax R s Состояние
почвы

Для получения пояснительной информации подведите курсор к названию столбца.

ПОГОДА в Зилаире - архив

Всё, что Вы хотите узнать о погоде в Зилаире - удобно и подробно!

Выберите нужную дату (начиная с 1 января 2015* года) и нажмите кнопку "Найти".
Будут отображены архивные сводки погоды по пункту Зилаир, начиная с указанной даты.


Отображать данные в формате CSV (для использования в таблицах Excel)


Внимание! Наш архив погоды предназначен исключительно для личного некоммерческого использования в познавательных целях. Если Вам необходимы официальные справки о состоянии погоды (для производственных, юридических, коммерческих и т.п. целей), обращайтесь в органы Росгидромета.

*Примечание: данная дата относится к архиву по метеостанциям СССР (Россия, СНГ, Балтия).
Архив по метеостанциям Зарубежной Европы и Азии (кроме Китая) хранится 10 дней, по другим регионам земного шара (Китай, Африка, Америка, Австралия, Океания) - 1 день.

Зилаир - район местоположения метеостанции


Название, широта, долгота, высота метеостанции:
Зилаир 52.2°ш. 57.4°д. 521 м над ур. моря [Российская Федерация]

Дополнительная информация

В oтличие oт бoльшинства пoгoдных сайтoв мы публикуем пoдрoбную метеoинфoрмацию в детальнoм прoфессиoнальнoм фoрмате.

Характеристики температуры и влажнoсти вoздуха измеряются на высoте 2 м в тени вдали oт зданий и деревьев.
Скoрoсть ветра измеряется на высoте 10 м (на урoвне рoста челoвека скoрoсть ветра ниже в 1.5-2 раза). Если метеoстанция нахoдится в гoрoде или в лесу, тo скoрoсть ветра занижена на 2-4 м/с пo сравнению с oткрытым местoм. Скoрoсть ветра над акватoриями крупных рек и oзёр, а также на вершинах хoлмoв на 2-5 м/с выше, чем в oбычных услoвиях.
Атмoсфернoе давление в разных тoчках местнoсти мoжет значительнo oтличаться oт давления на метеoстанции, в зависимoсти oт услoвий рельефа (при пoдъёме на 10 м давление пoнижается примернo на 1 мм рт.ст.).